Dewpoint
61 57 52 50 49 46 39 37 15 27 24 20 18 22 16 23 25 19 19 22 21 23 26 37 33 29 25 24 30 44 47 26 28 15 18 33 51 59 63 65 68 69 70 71 69 69 70 70 72 72 72 71 72 72 71 71 71 71 71 71 70 70 70 70 69 69 69 69 69 69 69 70 70 70 70 70 69 68 67 67 67 67 67 66 66 65 63 64 65 66 67 66 66 66 67 68 67
59 55 51 52 45 41 36 36 27 25 23 19 18 21 19 22 19 18 18 22 22 32 37 43 45 46 46 48 49 42 42 48 51 32 49 50 56 58 62 67 69 70 71 71 70 70 70 71 71 71 72 71 71 71 71 71 71 70 71 70 70 70 70 70 69 69 69 69 68 68 68 69 69 70 71 70 69 68 68 67 67 67 66 66 65 64 63 63 65 66 66 66 66 66 66 67 67
58 52 49 46 42 38 37 31 22 22 19 15 16 19 21 18 17 19 20 22 27 34 37 36 31 29 36 42 40 37 35 49 53 51 53 56 57 58 61 68 69 70 71 71 70 70 70 70 70 72 71 71 71 71 71 71 70 71 70 70 70 70 70 69 69 69 69 69 68 68 68 68 68 70 70 69 69 68 68 68 67 67 66 66 65 64 62 62 65 66 66 66 66 66 66 66 67
51 54 47 45 39 38 30 30 25 21 19 19 17 20 21 21 18 21 22 22 26 28 24 23 33 35 38 39 41 40 42 49 53 53 52 55 55 57 62 65 70 71 71 71 70 70 70 70 71 72 71 71 71 71 71 71 71 71 70 70 70 70 69 69 69 69 69 68 69 68 68 68 68 69 70 69 68 67 68 68 67 67 66 66 65 63 61 60 63 64 65 65 65 65 65 65 66
48 54 49 45 36 30 29 27 23 24 17 19 17 21 29 25 21 23 21 21 20 21 23 24 31 32 38 37 38 37 42 45 42 53 53 55 58 60 62 67 71 71 71 70 70 69 69 68 70 71 71 71 71 71 71 71 71 70 70 70 70 69 69 69 69 69 69 69 69 69 69 69 69 69 69 69 68 67 67 67 67 66 66 65 65 63 61 59 62 63 64 65 65 64 64 64 65
49 48 49 37 26 34 26 20 22 19 23 22 18 18 22 22 21 22 18 18 19 22 23 27 27 27 46 48 46 48 49 41 44 54 56 58 61 62 63 68 70 70 71 71 70 69 69 69 70 71 71 71 71 71 71 71 70 70 70 70 69 69 69 69 69 69 69 69 69 68 68 68 68 69 69 69 68 67 67 67 66 66 65 65 64 63 61 58 60 62 64 64 64 64 63 64 65
43 39 38 39 34 31 23 21 18 19 19 22 21 20 21 21 21 18 17 18 19 25 28 33 41 37 37 44 41 52 52 52 55 56 57 59 61 62 63 69 70 70 70 70 70 69 69 69 71 71 71 71 71 71 71 70 70 70 70 69 69 69 69 69 69 69 69 69 69 69 69 68 69 69 68 68 68 67 67 67 66 66 65 65 64 63 60 58 60 61 62 64 64 63 62 64 65
48 36 38 29 27 30 23 23 20 26 18 22 22 20 20 21 19 17 17 18 17 20 30 38 29 29 29 42 38 50 48 54 56 57 60 61 61 63 65 69 69 69 70 70 70 69 69 69 71 71 72 72 71 71 71 70 70 70 70 69 69 69 69 68 68 69 68 69 69 68 68 69 69 69 68 68 67 67 67 66 66 66 65 65 64 63 60 57 59 61 62 64 64 63 64 64 64
40 40 40 30 22 27 22 20 19 22 22 21 20 27 37 21 18 16 16 18 19 21 25 29 26 23 27 44 44 47 47 48 53 59 60 61 63 63 67 67 68 68 70 70 70 69 68 68 70 71 71 71 71 71 71 70 70 70 70 70 69 69 69 69 69 68 68 69 69 69 69 69 69 69 68 68 67 67 66 66 66 66 65 65 64 63 60 57 58 60 62 64 64 63 63 63 64
35 31 26 27 27 20 22 17 19 19 20 21 21 19 25 21 17 17 16 17 19 25 27 28 26 21 34 41 41 42 50 42 46 59 60 63 64 65 66 67 67 69 70 70 70 70 69 69 68 70 71 71 71 71 71 71 70 70 70 70 69 69 70 70 68 68 69 69 69 69 69 69 69 69 68 68 68 67 67 66 66 66 65 65 63 62 60 57 57 59 61 63 63 62 62 62 63
27 37 37 26 23 19 20 16 18 19 19 21 19 20 23 20 17 17 19 18 22 25 28 31 32 36 36 37 38 41 39 42 57 58 60 62 64 66 66 67 68 69 69 69 69 70 70 69 68 68 69 70 70 71 71 71 71 71 70 70 69 70 70 69 69 69 69 69 70 69 69 69 69 68 68 68 67 67 67 67 66 65 65 65 63 61 59 56 56 58 61 62 61 60 60 61 62
23 31 33 27 22 19 20 18 20 21 20 20 18 20 20 17 20 18 19 18 20 21 21 28 28 33 32 33 35 38 35 44 54 56 60 61 63 64 65 66 66 67 67 68 68 68 69 69 69 68 67 67 69 70 70 70 70 70 71 71 70 70 69 69 69 69 70 70 70 69 69 69 69 68 68 67 67 67 67 66 66 66 65 64 63 61 57 54 55 57 59 59 59 59 59 59 60
27 35 28 25 22 22 24 19 20 27 20 18 18 19 20 18 17 18 19 20 20 20 21 23 31 29 27 32 33 32 36 46 40 55 58 60 62 62 63 64 64 65 65 66 66 66 67 69 69 70 68 65 66 67 68 68 69 70 70 70 71 70 70 70 70 70 70 69 69 68 69 69 69 68 68 67 67 67 67 66 66 65 65 63 62 59 55 54 55 57 58 57 57 57 57 57 57
32 34 31 24 26 22 20 21 21 17 16 20 21 21 22 19 19 19 20 19 21 19 21 25 30 29 28 28 30 30 31 44 42 57 57 58 59 60 61 62 62 62 63 63 63 65 65 66 67 69 68 68 68 67 65 67 68 69 69 69 69 69 70 70 70 70 69 68 69 68 68 68 68 69 68 68 67 67 67 66 65 65 65 64 62 59 56 54 55 56 56 56 55 55 55 55 54
26 36 28 26 21 20 21 19 19 19 14 20 19 20 21 23 21 21 19 20 21 23 26 27 30 22 19 23 22 31 31 36 51 56 56 55 54 55 56 57 56 57 57 57 57 59 59 62 64 67 67 68 68 68 68 67 66 67 68 67 68 69 68 69 68 66 68 68 67 67 66 66 66 66 67 68 67 67 66 66 65 65 64 63 62 60 58 56 54 53 53 54 55 55 54 54 54
34 28 27 22 17 21 19 22 25 20 16 21 20 21 21 21 24 21 21 21 23 30 26 23 28 21 25 21 25 28 31 35 53 55 53 50 50 50 50 51 52 52 53 54 54 55 55 56 60 62 63 66 67 67 67 67 64 64 66 66 67 67 68 68 67 66 65 64 64 64 64 64 64 64 62 64 65 65 65 64 66 65 64 63 62 61 59 57 55 54 54 53 53 54 56 56 55
38 32 22 22 16 20 19 20 20 16 22 23 22 21 20 20 23 25 27 25 23 25 28 29 27 30 28 27 30 31 33 47 55 53 50 49 49 48 49 50 51 51 52 53 54 54 55 55 58 57 59 60 63 65 67 67 65 63 64 64 64 65 65 66 66 62 61 60 61 61 62 66 66 65 64 64 62 63 61 62 65 65 65 64 63 61 60 58 56 55 54 53 53 53 52 53 55
34 26 24 20 19 18 21 20 20 24 19 19 20 20 20 20 22 23 23 24 26 26 27 28 29 30 30 30 35 35 46 55 53 51 49 47 46 46 47 47 49 51 51 52 54 54 54 54 55 54 56 57 57 63 66 67 66 64 67 66 66 65 62 62 64 64 63 63 59 63 65 65 65 65 65 64 63 62 63 61 62 64 65 64 64 62 61 60 60 58 55 54 54 53 49 41 43
29 27 25 18 23 23 23 24 21 18 19 19 20 21 20 19 22 23 20 21 24 23 24 28 27 28 31 33 35 34 47 52 51 50 48 46 45 46 46 45 47 48 50 51 52 53 54 54 54 54 55 56 57 60 64 66 67 67 67 67 66 63 64 64 65 64 65 64 63 65 65 65 65 65 64 64 63 61 63 60 61 63 64 63 64 63 63 63 62 59 56 57 55 52 45 44 42
32 27 20 23 27 25 23 24 23 20 20 19 20 22 20 20 22 25 21 21 23 22 22 24 26 27 29 32 35 34 40 49 49 49 47 45 44 45 45 46 46 46 48 49 50 52 53 53 53 54 54 55 57 57 61 64 67 67 66 67 66 66 65 65 65 65 65 65 65 65 65 65 65 65 62 60 62 63 61 60 61 61 62 61 60 61 62 62 60 58 57 55 53 50 47 46 45
24 25 22 23 25 23 23 24 24 24 20 20 21 23 20 23 23 22 22 21 22 22 24 22 22 26 28 31 35 35 33 41 46 47 47 43 43 44 45 47 47 47 47 48 48 50 50 52 52 53 53 55 56 57 60 63 64 67 66 67 66 66 65 65 65 65 64 64 64 63 64 65 64 63 63 63 64 63 64 64 63 63 62 60 59 59 58 57 55 53 52 52 50 49 48 47 46
25 19 22 24 25 22 23 25 27 24 24 22 22 20 20 24 23 22 21 19 19 20 22 24 23 25 29 31 34 35 34 35 41 45 44 41 42 43 45 45 47 46 47 48 49 49 49 50 51 52 53 55 56 57 57 61 63 66 66 66 67 66 65 65 65 65 65 65 64 64 63 64 64 63 63 63 63 64 64 64 64 63 62 60 59 60 58 57 56 54 52 51 51 50 50 49 48
19 21 22 23 25 23 24 26 27 23 22 21 21 22 23 23 22 23 20 19 20 23 25 26 24 27 29 33 34 35 35 36 37 42 42 40 42 45 46 46 47 48 47 47 48 48 49 49 48 49 53 55 57 57 58 62 63 64 67 66 66 65 65 64 63 63 64 64 64 64 63 63 63 63 63 63 63 64 64 64 64 63 61 60 59 60 59 59 57 54 53 52 52 51 50 49 48
24 19 22 22 24 23 26 24 26 23 22 21 22 23 22 22 21 24 21 21 22 27 29 28 28 30 33 33 34 35 35 36 37 39 41 41 43 45 46 47 47 46 46 47 48 48 48 48 49 50 51 54 56 56 61 63 63 64 64 64 64 63 63 63 62 62 62 62 61 61 62 63 63 63 62 63 63 63 63 63 63 61 60 60 58 60 60 59 58 57 55 53 52 52 50 49 48
24 22 25 24 24 24 27 26 23 23 23 24 24 22 22 22 22 21 20 21 28 29 30 30 30 31 32 33 34 35 36 37 38 40 41 41 43 45 44 45 45 45 46 47 48 48 49 49 50 51 51 54 55 56 63 63 63 63 62 63 62 61 62 62 61 61 61 61 61 61 62 62 63 63 62 62 62 61 61 62 62 61 61 61 59 59 60 59 58 58 56 53 53 51 50 49 48
26 23 25 24 23 24 25 25 25 23 25 24 22 22 22 23 24 21 21 23 28 30 30 30 31 31 32 32 33 34 35 37 38 40 41 42 43 45 44 46 46 47 47 48 48 48 49 50 52 52 50 54 57 61 62 62 61 61 60 60 60 59 60 60 60 60 60 61 61 62 62 62 63 62 61 61 61 60 60 60 60 60 61 60 60 59 59 58 57 57 56 55 53 51 50 50 48
25 24 24 23 24 24 26 24 24 25 26 24 21 22 22 23 22 18 24 27 29 29 30 30 30 31 31 32 33 34 35 36 38 40 42 42 43 45 45 44 46 47 46 47 48 49 50 51 51 50 51 55 59 62 62 61 60 59 59 59 58 58 59 58 58 58 59 60 60 61 62 62 62 61 60 60 59 59 59 59 59 59 59 59 59 58 58 58 57 56 55 54 54 53 52 51 49
24 24 24 24 25 26 24 24 23 23 22 23 22 21 23 22 23 19 23 28 29 28 29 30 30 30 31 32 32 34 35 36 38 41 41 42 43 44 45 46 46 45 47 47 49 50 51 51 50 50 52 57 59 60 59 59 58 57 56 57 56 56 56 56 57 57 57 58 59 59 60 60 60 60 59 59 59 58 58 58 58 58 58 58 58 58 57 56 55 54 54 54 54 53 52 51 48
24 25 23 24 25 23 24 22 23 23 22 23 23 22 21 22 20 22 24 28 28 28 28 29 29 30 31 32 32 33 34 35 37 39 41 42 41 42 44 44 45 46 46 48 49 50 50 50 50 50 52 56 58 57 56 56 55 54 54 54 54 54 54 55 55 55 56 56 57 58 58 58 59 58 58 58 58 58 57 57 57 57 57 57 57 56 55 54 52 50 49 50 51 51 50 49 47
25 24 23 22 24 22 24 25 24 23 23 24 23 20 22 21 21 23 28 27 27 27 27 28 28 29 29 31 32 33 33 34 36 37 39 41 41 42 43 44 44 46 48 48 49 50 50 51 51 51 51 52 53 53 53 53 53 52 52 51 51 52 51 51 51 52 54 55 55 56 57 57 57 58 57 56 56 56 55 55 55 54 54 53 53 53 50 51 48 48 47 47 48 49 48 46 42
23 24 26 23 19 20 23 25 23 22 24 24 22 21 20 21 22 24 28 27 26 26 26 27 27 28 28 30 31 32 33 33 35 36 38 38 40 41 43 43 45 46 47 48 49 49 48 49 50 49 50 50 50 51 51 51 51 51 51 50 49 50 49 49 49 50 51 53 53 54 54 54 55 54 54 54 53 53 52 51 51 51 51 51 50 50 50 45 45 44 45 46 46 47 47 46 41
27 20 21 26 19 23 26 28 22 21 22 24 22 22 20 21 22 24 27 27 26 25 25 26 27 27 27 29 30 31 32 32 34 36 36 37 40 42 42 44 45 47 47 48 49 48 47 48 49 49 49 50 50 49 49 49 49 49 49 48 47 47 48 47 46 47 48 50 51 51 51 52 52 52 52 52 51 50 50 48 47 45 47 45 44 43 41 41 40 41 41 44 45 44 43 42 40
28 21 23 22 23 23 24 22 23 24 21 22 22 20 21 21 22 25 27 26 26 25 25 25 26 27 27 28 29 30 31 31 33 35 35 37 40 42 42 44 45 47 47 48 48 47 47 47 48 48 48 48 48 48 48 47 47 46 45 45 45 45 44 44 44 45 46 47 47 48 48 49 49 50 50 50 49 48 48 46 45 44 43 42 40 39 37 39 38 38 36 38 43 42 42 40 38
22 26 22 26 23 24 23 26 26 27 21 20 21 21 20 21 22 24 27 26 26 25 25 25 25 26 27 27 28 29 30 30 31 33 35 37 40 41 42 44 45 46 47 48 48 47 46 47 47 48 47 47 47 48 46 45 43 43 43 42 41 41 41 42 42 42 43 44 45 45 45 46 46 46 46 46 46 46 45 45 44 43 40 37 35 33 32 32 33 35 34 33 37 41 40 38 35
21 23 22 23 25 24 24 24 25 21 22 20 20 20 20 21 21 22 25 26 25 25 25 24 24 25 26 27 27 28 29 30 30 32 35 37 40 40 42 43 44 44 47 48 47 47 46 46 46 46 46 46 45 44 44 43 42 41 41 41 40 38 38 39 40 40 41 41 42 43 43 43 44 44 44 44 43 44 42 41 38 36 33 31 29 28 28 29 30 32 34 34 36 38 39 37 34
25 25 24 25 23 24 24 26 27 21 20 20 20 20 20 20 21 21 23 25 25 25 25 25 24 24 25 26 27 28 29 29 31 34 35 37 39 40 41 42 43 44 47 48 47 46 46 45 45 45 45 44 44 42 41 41 41 41 39 39 39 38 37 37 36 37 37 38 40 40 41 41 42 42 42 42 41 40 38 36 34 32 30 28 27 26 26 27 30 32 35 36 35 35 36 36 34
29 28 27 26 25 25 26 27 28 26 22 21 21 21 21 21 21 22 22 24 25 25 24 24 25 25 24 25 26 27 28 29 32 35 35 36 38 39 41 42 42 43 47 47 47 46 45 45 44 44 44 43 43 43 41 41 41 41 40 40 37 36 35 35 35 35 35 35 37 38 38 38 40 40 40 39 38 37 34 33 32 31 30 28 27 26 26 25 28 32 33 35 34 33 30 31 31
26 26 25 24 25 23 25 25 27 26 22 23 23 22 22 22 22 22 23 23 23 24 24 24 24 24 25 25 26 27 27 32 33 34 35 36 37 38 40 41 41 44 46 47 47 46 45 45 44 44 43 42 42 43 43 41 41 41 40 36 35 35 35 35 33 33 33 34 34 34 34 35 37 36 37 36 34 33 31 31 30 30 29 29 30 30 29 30 27 29 30 28 26 30 26 26 30
26 24 25 24 25 27 27 27 28 26 24 22 23 23 23 24 24 24 24 23 23 23 23 23 24 24 24 25 25 26 28 29 32 32 35 35 37 38 40 41 41 44 46 46 47 46 45 44 44 43 42 42 42 42 43 41 38 37 36 34 33 30 30 31 31 31 31 30 30 30 30 31 32 32 33 33 32 31 30 29 28 28 28 27 24 23 23 23 24 26 28 28 24 23 24 26 25
25 25 24 24 26 24 23 25 27 25 24 23 25 24 24 25 26 26 26 26 25 25 24 24 25 24 24 24 24 25 26 28 30 31 33 35 37 38 39 40 41 43 46 46 46 46 45 44 44 43 42 42 42 40 38 36 34 32 31 30 30 30 29 30 28 28 28 27 27 29 29 29 30 30 30 31 30 29 28 28 27 26 25 25 22 21 20 20 20 22 24 26 26 22 20 20 24
27 26 25 25 25 26 25 24 29 29 29 28 26 26 26 27 27 27 28 29 27 27 28 27 27 28 27 30 29 27 25 27 29 31 33 35 36 37 38 40 41 43 45 45 46 46 45 44 44 43 42 41 39 37 35 34 32 29 29 28 29 28 28 28 28 27 26 27 26 26 26 27 28 28 28 28 28 28 28 27 25 24 23 23 22 20 20 21 21 21 21 21 23 22 18 19 20
27 28 27 25 26 25 25 27 26 26 26 28 27 24 25 27 29 29 28 30 29 30 29 29 28 29 29 27 27 28 30 28 29 30 32 34 35 36 38 39 40 43 45 45 46 46 45 44 44 43 41 38 36 35 33 33 32 31 32 32 32 30 29 30 30 27 25 25 25 25 24 26 27 26 26 27 27 27 26 25 24 22 22 22 23 22 21 20 19 18 19 16 15 17 16 16 16
25 26 29 27 26 26 26 27 26 23 22 27 28 23 24 26 27 28 29 29 29 30 30 29 30 30 30 29 29 28 28 28 30 31 32 34 35 36 37 39 40 42 44 45 45 45 44 44 43 41 39 37 36 34 33 33 32 32 33 34 33 32 31 29 26 26 25 25 25 23 23 24 24 24 24 25 25 25 24 24 23 22 22 22 23 20 20 21 22 21 20 15 16 20 14 14 14
26 28 28 28 26 26 26 26 27 26 27 28 27 27 25 26 27 29 28 28 28 29 29 30 30 30 31 30 29 28 28 28 30 31 32 33 34 36 37 38 40 42 44 44 44 42 42 42 41 39 37 36 35 34 33 33 32 32 33 32 32 32 31 26 24 23 23 23 22 21 21 22 23 23 23 23 23 23 23 22 22 21 21 21 22 20 22 23 24 24 22 20 20 17 13 12 14
28 30 29 27 26 27 27 27 26 27 26 28 26 27 25 26 28 30 30 29 29 29 29 30 30 31 31 32 32 30 28 28 30 31 32 33 34 35 36 38 40 42 43 43 43 41 41 40 39 38 36 35 34 33 33 33 33 33 32 32 31 28 26 24 24 24 22 21 20 20 20 21 21 22 22 22 22 23 23 21 21 20 21 21 22 22 21 20 18 18 18 17 17 20 18 16 12
28 31 32 31 30 28 27 27 27 26 25 26 27 28 24 23 27 28 29 29 29 28 29 29 30 30 31 32 33 31 28 29 30 31 32 33 34 35 36 38 39 41 42 42 41 39 39 38 37 36 36 35 34 33 33 32 33 32 31 30 28 25 24 22 21 20 20 19 18 18 19 19 20 20 21 22 21 21 21 21 20 19 20 21 21 20 20 19 20 20 20 19 19 19 21 18 16
33 32 31 30 28 27 25 26 24 24 22 28 28 28 27 24 26 26 27 28 28 28 28 29 30 31 31 32 32 32 29 29 30 31 32 33 34 36 37 38 39 39 40 40 40 39 38 37 36 36 35 34 33 33 32 32 31 30 30 28 25 23 22 21 19 18 18 17 16 17 17 19 19 20 21 20 21 20 20 21 19 19 21 22 21 18 18 19 20 21 21 21 21 20 21 23 23
33 30 29 29 28 23 22 20 22 21 22 23 25 28 28 25 26 27 28 29 30 29 28 28 29 30 31 31 31 31 30 30 31 31 32 34 35 36 37 37 38 38 38 39 39 38 37 37 36 35 34 33 33 32 32 31 30 29 28 27 25 23 21 21 18 17 16 15 15 15 17 18 18 20 19 19 19 20 19 19 21 19 19 17 17 18 19 20 20 20 19 19 20 21 21 20 19
32 30 29 23 18 19 15 17 19 20 21 21 25 27 26 27 25 27 29 30 30 29 30 29 29 29 30 30 30 31 31 31 31 31 32 34 34 36 36 37 37 36 37 38 39 38 37 36 36 35 34 33 32 32 31 29 29 27 26 25 24 22 21 20 18 16 15 14 13 14 16 15 18 18 17 17 18 18 19 17 16 16 17 18 19 19 20 19 19 19 19 19 19 18 18 17 17
31 30 28 24 18 18 16 14 9 15 19 22 24 26 25 25 27 29 29 29 30 30 30 30 30 29 29 30 31 31 31 31 31 31 32 33 34 35 36 37 37 37 37 38 38 38 37 36 35 35 34 33 32 31 29 28 27 25 24 23 22 22 20 18 17 15 13 13 14 14 13 14 15 13 15 15 18 18 17 17 17 18 19 20 20 19 19 19 18 17 17 17 18 19 18 18 18
31 30 29 27 23 18 16 15 13 16 18 20 23 20 22 22 24 27 30 31 30 28 28 29 30 30 30 30 30 30 30 31 31 31 32 33 34 35 36 37 37 37 36 37 37 37 37 36 35 35 34 33 31 29 28 27 26 24 23 22 21 20 19 17 16 16 12 12 13 12 12 13 12 13 14 17 20 18 19 19 19 19 20 20 20 20 21 19 19 17 18 19 19 18 18 19 18
29 30 30 25 25 23 15 17 15 15 17 17 18 23 24 25 28 29 29 29 28 28 27 26 26 27 29 29 29 30 31 31 31 31 32 33 34 35 36 36 36 36 35 36 36 37 37 36 35 35 34 32 30 28 27 26 24 22 21 19 19 18 18 16 16 16 12 12 12 11 11 12 12 14 17 19 20 19 19 20 20 19 20 19 19 19 18 18 17 17 18 17 18 21 18 18 19
28 30 27 29 28 25 21 20 20 19 15 23 17 24 26 28 27 28 28 28 28 28 28 27 26 26 27 28 28 30 31 31 31 31 31 32 33 34 35 36 36 36 35 35 36 36 37 36 35 34 33 31 30 28 26 24 23 21 19 18 17 16 15 13 12 12 11 12 12 11 11 12 14 16 20 21 21 20 20 19 18 18 18 18 18 18 18 17 17 17 16 17 18 19 18 18 19
30 26 29 30 30 29 25 20 14 12 19 19 22 23 24 23 23 26 27 27 28 28 28 28 28 27 26 28 28 29 30 31 31 31 31 32 33 34 35 35 35 35 35 35 35 35 36 36 35 34 32 31 29 27 25 23 21 19 18 16 15 14 13 12 12 11 12 12 13 13 14 15 15 19 21 22 20 20 19 20 16 17 17 17 17 17 17 17 16 16 16 16 17 17 18 18 18
30 30 31 29 23 22 26 21 19 11 17 20 21 22 24 25 25 23 24 27 27 27 28 28 28 28 28 28 28 29 30 30 30 31 31 32 33 33 34 35 35 35 35 34 34 34 34 34 34 33 32 31 28 27 24 23 21 21 19 16 14 14 13 12 12 12 12 12 12 13 14 15 18 21 21 20 19 18 18 16 15 15 16 16 17 16 17 16 15 15 16 17 18 16 15 16 17
31 32 30 30 28 22 22 26 19 20 15 13 20 21 21 26 27 25 25 26 27 27 27 27 27 27 27 27 28 29 29 30 30 31 31 31 32 33 33 34 34 34 34 33 33 33 33 33 32 32 31 30 28 26 24 21 20 20 19 16 15 14 13 12 12 12 12 12 12 14 15 16 18 21 19 19 18 17 16 14 14 14 15 15 14 15 14 15 14 14 15 16 17 15 14 14 16
28 28 28 28 25 28 27 24 23 20 12 13 18 21 21 25 28 26 26 26 27 27 27 29 28 28 27 28 28 29 29 30 30 31 31 31 31 32 33 33 33 32 32 33 32 32 32 32 31 30 30 28 27 25 23 21 20 19 18 15 14 14 13 13 13 12 11 12 13 15 16 16 20 19 18 17 16 16 15 14 14 15 14 14 14 14 14 13 12 12 13 15 15 14 13 12 14
30 30 29 30 28 23 20 24 25 19 20 21 14 21 24 26 29 27 27 27 27 28 28 29 29 29 29 29 29 28 29 29 30 30 31 31 31 31 31 31 31 32 32 32 32 31 31 31 31 30 29 28 26 25 23 22 20 20 17 15 14 14 13 14 12 12 10 12 14 15 17 19 18 18 17 16 15 15 14 14 14 14 14 14 14 14 13 11 10 10 10 12 13 12 10 10 11